Vertical_Velocity
-0 1 0 2 -1 -3 -1 3 5 1 -1 -7 -0 4 1 0 3 -4 -2 -0 -3 -3 7 -0 5 -9 0
2 1 -4 -1 5 -3 -0 -1 -2 2 -1 -3 0 2 -4 -1 -2 1 0 0 -1 -1 3 -2 5 -4 3
2 -0 1 -3 -3 -1 -2 -3 1 1 0 2 4 3 0 -3 -3 -1 -3 5 -5 4 -2 8 -0 -4 0
0 1 3 1 -3 -4 -3 1 -6 -3 1 6 -5 -1 -2 -0 -4 6 -8 -6 -4 3 0 0 1 4 -4
0 0 1 3 -1 -1 -3 -5 -4 0 1 -2 0 -4 3 -2 -3 -3 -3 -7 -3 3 -2 1 -0 2 -5
-2 -5 -2 -4 -1 2 -4 -2 -3 -6 -2 -4 2 3 -2 1 1 -9 1 0 -3 3 -0 0 -2 4 1
1 -5 4 2 1 -2 -2 -2 -1 -1 -3 0 0 -1 2 -1 -4 2 -5 8 -0 2 -0 -0 -1 1 2
6 1 9 4 0 -3 6 6 2 -1 -2 1 1 1 -4 -3 2 -6 4 1 -2 4 -3 0 -2 1 3
7 -1 4 -2 -1 5 -8 -4 0 -6 -2 -2 2 2 -2 -3 -2 -3 5 -1 1 2 -3 -1 -1 0 0
1 3 4 7 -7 -1 5 2 1 -1 -4 2 2 -2 1 -5 0 0 0 -1 2 -1 -2 -2 -0 2 -0
0 1 1 0 1 4 4 -7 0 -1 -2 4 -2 -2 0 -2 3 -1 -1 0 0 -3 -2 -1 -0 1 1
1 2 -2 1 4 -1 1 3 2 1 -3 4 -4 -1 -0 3 -1 0 -1 2 -1 -4 -2 2 0 -0 0
-1 1 2 5 2 1 1 -1 3 -1 -1 4 -4 -1 4 -2 -0 -1 -1 1 -2 -4 -2 1 1 -0 -0
-0 -2 6 1 -1 4 1 0 2 -0 1 0 -3 1 2 -1 1 -2 -0 -0 -1 -3 -1 0 0 0 -0
-0 -4 2 1 1 2 3 2 -1 1 -0 1 -1 -0 4 3 -1 -1 -1 -2 -2 -2 -1 -0 0 1 1
6 3 -14 -1 2 2 1 1 -1 1 2 2 0 0 5 1 2 -1 -1 -2 -2 -1 -0 -1 -1 1 -0
5 6 -7 -2 3 1 -0 1 1 2 1 1 1 1 1 -0 1 -0 1 -2 -2 -1 -1 0 0 -0 -0
Height
1496 1497 1497 1495 1495 1497 1498 1497 1495 1495 1495 1496 1495 1494 1492 1491 1489 1488 1487 1486 1483 1482 1479 1476 1476 1470 1469
1490 1490 1492 1491 1490 1490 1494 1492 1494 1492 1494 1494 1492 1490 1489 1487 1486 1486 1481 1484 1480 1479 1479 1473 1470 1470 1467
1485 1485 1486 1486 1486 1485 1486 1486 1487 1487 1487 1489 1487 1486 1485 1484 1484 1483 1479 1479 1477 1478 1476 1474 1468 1468 1466
1478 1478 1479 1477 1480 1481 1482 1484 1484 1485 1485 1482 1483 1483 1484 1480 1480 1478 1477 1477 1477 1474 1475 1473 1467 1467 1466
1471 1472 1472 1469 1470 1473 1476 1477 1477 1479 1481 1480 1479 1479 1480 1479 1476 1475 1474 1473 1476 1473 1473 1473 1468 1467 1467
1464 1466 1464 1463 1464 1465 1466 1469 1473 1472 1477 1477 1477 1473 1474 1476 1473 1472 1471 1471 1472 1471 1471 1472 1470 1468 1468
1457 1455 1456 1456 1458 1459 1460 1461 1466 1470 1468 1471 1471 1471 1470 1472 1471 1471 1470 1471 1468 1468 1468 1470 1470 1470 1469
1452 1452 1452 1448 1451 1454 1458 1458 1460 1465 1466 1466 1465 1466 1466 1469 1468 1470 1470 1468 1468 1466 1466 1469 1470 1471 1470
1440 1445 1446 1445 1447 1449 1448 1454 1456 1457 1464 1462 1464 1462 1463 1466 1466 1468 1468 1467 1467 1465 1466 1468 1470 1470 1471
1436 1438 1440 1440 1441 1446 1446 1449 1451 1453 1458 1458 1458 1462 1461 1463 1464 1465 1466 1465 1465 1464 1465 1467 1469 1469 1470
1429 1431 1433 1437 1437 1441 1441 1444 1447 1448 1451 1453 1453 1459 1459 1461 1460 1463 1463 1463 1463 1463 1466 1468 1468 1468 1469
1422 1424 1426 1431 1432 1436 1437 1440 1443 1444 1447 1450 1450 1455 1457 1458 1459 1461 1461 1462 1462 1463 1466 1467 1468 1468 1469
1416 1418 1422 1426 1428 1430 1432 1435 1437 1440 1443 1446 1448 1452 1454 1455 1457 1458 1460 1460 1461 1462 1464 1466 1467 1468 1468
1406 1412 1416 1418 1422 1425 1427 1430 1433 1436 1439 1442 1445 1449 1451 1453 1455 1456 1458 1458 1460 1462 1463 1464 1465 1466 1467
1399 1402 1408 1413 1417 1420 1423 1426 1428 1431 1435 1438 1441 1445 1448 1450 1451 1454 1456 1457 1459 1461 1462 1462 1463 1464 1465
1395 1395 1400 1408 1412 1416 1419 1422 1425 1429 1431 1434 1438 1442 1444 1446 1449 1451 1453 1455 1458 1460 1460 1461 1461 1461 1462
1389 1391 1393 1400 1406 1410 1414 1418 1422 1425 1428 1431 1434 1438 1440 1442 1444 1448 1450 1453 1456 1458 1458 1459 1458 1459 1460